ISS - Orbit Data

View from orbit pole
View from above orbital plane
View from above satellite
View from above satellite

Ground track
Ground track

The orbit data is extracted from the following two-line orbital elements,

1 25544U 98067A   10040.38873190  .00019275  00000-0  12567-3 0  5505
2 25544 051.6454 166.8195 0010777 303.5541 109.5214 15.75852402643347
Epoch (UTC): 09:19:46, Tuesday, February 9, 2010
Eccentricity: 0.0010777
Inclination: 51.6454°
Perigee height: 335 km
Apogee height: 349 km
Right Ascension of ascending node: 166.8195°
Argument of perigee: 303.5541°
Revolutions per day: 15.75852402
Mean anomaly at epoch: 109.5214°
Orbit number at epoch: 64334

The dashed part of the orbit path shows where the satellite is in the earth's shadow,
and the full part is where it is sunlit.  


Developed and maintained by Chris Peat, Heavens-Above GmbH
Please read the updated FAQ before sending e-mail. Imprint.
DLR